Terminal Aerodrome Forecast
Issued by NWS Duluth, MN

Home | Current Version | Previous Version | Text Only | Print | Product List | Glossary On
Versions: 1 2 3 4 5 6 7 8 9 10 11 12 13 14 15 16 17 18 19 20 21 22 23 24
000
FTUS43 KDLH 231300 AAA
TAFDLH
TAF AMD
KDLH 231334Z 2314/2412 06014KT 5SM BR OVC006
      TEMPO 2314/2316 1 1/2SM -SN BR OVC003
     FM231600 04012KT 2SM -SN BR OVC004
     FM232300 03010KT 4SM -SN BR OVC008
     FM240300 34007KT 6SM -SN OVC012
     FM240600 33006KT P6SM OVC015=

USA.gov is the U.S. government's official web portal to all federal, state and local government web resources and services.